Location: Unspecified
(38.9820°N, 0.0000°E)
Time: 00:49:32
(UTC+00:00)

Tiangong 2 - Pass Details

Date: 29 May 2019
Orbit: 376 x 389 km, 42.8° (Epoch: 17 June)

Event Time Altitude Azimuth Distance (km) Brightness Sun altitude
Rises 21:34:45 0° 285° (WNW) 2,237 5.7 -20.8°
Reaches altitude 10° 21:36:58 10° 273° (W) 1,382 4.4 -21.0°
Enters shadow 21:38:28 21° 252° (WSW) 899 3.1 -21.2°
